Regional Weather Roundup
Issued by NWS

Home | Current Version | Previous Version | Graphics & Text | Print | Product List | Glossary On
Versions: 1 2 3 4 5 6 7 8 9 10 11 12 13 14 15 16 17 18 19 20 21 22 23 24 25 26 27 28 29 30 31 32 33 34 35 36 37 38 39 40 41 42 43 44 45 46 47 48 49 50
640
ASUS44 KJAN 312003
RWRMS

MISSISSIPPI HOURLY WEATHER ROUNDUP
NATIONAL WEATHER SERVICE JACKSON MS
300 PM CDT SUN AUG 31 2014

NOTE: "FAIR: INDICATES FEW OR NO CLOUDS BELOW 12,000 FEET WITH NO
SIGNIFICANT WEATHER AND/OR OBSTRUCTIONS TO VISIBILITY.

MSZ001>002-007>008-010>013-018>021-025>028-034>036-312100-
NORTHWEST MISSISSIPPI

CITY           SKY/WX    TMP DP  RH WIND       PRES   REMARKS
CLARKSDALE     FAIR      88  73  62 SW7       30.02F HX  96
CLEVELAND      FAIR      89  75  65 S10       30.02F HX  99
GREENWOOD      CLOUDY    84  74  71 S9        30.04F HX  91
GREENVILLE     PTSUNNY   88  74  63 S10       30.01F HX  96
GRENADA        FAIR      82  72  69 S9        30.05F
OLIVE BRANCH   MOSUNNY   86  77  74 S8        30.03  HX  97
OXFORD         FAIR      82  72  69 SW9       30.06F
TUNICA         PTCLDY    86  73  66 SW8       30.02F HX  93
$$

MSZ003>006-009-014>017-022>024-029>033-037>039-312100-
NORTHEAST MISSISSIPPI

CITY           SKY/WX    TMP DP  RH WIND       PRES   REMARKS
BELMONT        MOCLDY    81  73  75 S13       30.08F
COLUMBUS AFB   CLOUDY    85  73  66 SW9       30.07F HX  92
CORINTH        FAIR      84  72  65 SW12G18   30.04S
GOLDN TRIANGLE PTSUNNY   84  73  70 SW7       30.07F HX  91
STARKVILLE     FAIR      82  75  78 S3        30.07F
TUPELO         CLOUDY    83  72  69 SW8       30.06F
$$

MSZ040-058-312100-
CENTRAL MISSISSIPPI

CITY           SKY/WX    TMP DP  RH WIND       PRES   REMARKS
JACKSON INTL   CLOUDY    85  75  72 SW7       30.07F HX  93
JACKSON HAWKNS CLOUDY    86  75  69 S9        30.07F HX  95
MERIDIAN KEY   PTSUNNY   91  70  49 S9        30.06F HX  96
MERIDIAN NAS   PTSUNNY   88  70  55 N5        30.07F HX  93
RAYMOND        FAIR      86  81  84 S9        30.06F HX 102
VICKSBURG      CLOUDY    84  75  74 S8        30.04F HX  92
$$

MSZ059>079-312100-
SOUTH MISSISSIPPI

CITY           SKY/WX    TMP DP  RH WIND       PRES   REMARKS
BROOKHAVEN     FAIR      84  79  84 CALM      30.09F HX  96
HATTIESBURG    SUNNY     95  65  37 S12       30.06F HX  97
MCCOMB         CLOUDY    89  73  59 CALM      30.06F HX  97
NATCHEZ        CLOUDY    88  75  66 S8        30.06F HX  97
PINE BELT      MOSUNNY   91  66  43 S9        30.08F HX  94
$$

MSZ080>082-312100-
COASTAL MISSISSIPPI

CITY           SKY/WX    TMP DP  RH WIND       PRES   REMARKS
BAY ST LOUIS   MOSUNNY  N/A N/A N/A S9        30.07F
BILOXI         SUNNY     90  78  67 S9        30.07F HX 104
PASCAGOULA     MOSUNNY   90  74  59 S9        30.07F HX  99
GULFPORT       MOSUNNY   88  76  67 SE14      30.06F HX  99
$$



USA.gov is the U.S. government's official web portal to all federal, state and local government web resources and services.